Probability
14 17 18 14 13 11 9 10 10 6 1 0 0 0 0 0 0 0 1 1 1 1 2 1 1 1 0 0 0 0 0 0 0 0 0 0 0 0 0 0 0 0 0
19 20 18 16 14 14 13 14 13 8 3 0 0 0 0 0 0 0 0 0 0 1 2 2 2 2 1 0 0 0 0 0 0 0 0 0 0 0 0 0 0 0 0
25 24 20 18 17 16 16 16 15 11 5 1 1 0 0 0 0 0 0 0 0 1 2 3 3 3 2 1 0 0 0 0 0 0 0 0 0 0 0 0 0 0 0
29 27 24 23 22 18 16 16 15 11 6 3 2 1 0 0 0 0 0 0 0 1 2 3 3 3 3 2 1 0 0 0 0 0 0 0 0 0 0 0 0 0 0
31 31 30 29 28 23 18 15 13 10 7 4 3 1 0 0 0 0 0 0 0 1 2 3 3 3 3 2 1 0 0 0 0 0 0 0 0 0 0 0 0 0 0
33 34 34 32 31 26 20 14 11 8 6 5 4 2 1 1 1 1 0 0 0 1 2 3 3 3 3 2 1 0 0 0 0 0 0 0 0 0 0 0 0 0 0
35 35 34 33 30 26 19 13 9 7 6 6 5 4 3 2 2 1 0 1 1 2 2 3 3 3 3 2 1 0 0 0 0 0 0 0 0 0 0 0 0 0 0
33 33 33 31 27 22 16 11 7 6 6 6 5 4 3 2 1 1 0 1 2 3 3 2 2 2 3 2 1 0 0 0 0 0 0 0 0 0 0 0 0 0 0
29 29 30 29 25 18 13 9 6 5 5 5 4 2 1 1 0 0 0 1 2 3 3 3 2 2 2 2 1 0 0 0 0 0 0 0 0 0 0 0 0 0 0
27 27 27 26 23 18 12 8 6 5 5 5 3 1 0 0 0 0 0 1 2 3 3 3 2 1 1 1 1 0 0 0 0 0 0 0 0 0 0 0 0 0 0
27 26 25 24 22 19 15 10 8 6 5 4 3 1 0 0 0 0 0 0 1 1 2 3 2 1 0 0 0 0 0 0 0 0 0 0 0 0 0 0 0 0 0
25 24 22 21 20 20 17 14 11 8 5 4 3 1 1 1 1 1 0 0 0 0 1 2 2 1 0 0 0 0 0 0 0 0 0 0 0 0 0 0 0 0 0
20 20 19 18 18 18 17 16 14 11 8 5 4 3 2 3 3 3 1 0 1 1 0 1 1 0 0 0 0 0 0 0 0 0 0 0 0 0 0 0 0 0 1
16 16 16 15 15 14 14 16 15 12 9 7 5 4 3 4 5 5 3 2 2 2 1 0 0 0 0 0 0 0 0 0 0 0 0 0 0 0 0 0 0 0 1
12 11 10 10 10 10 11 13 12 9 7 5 5 4 4 4 5 5 4 3 2 2 1 0 0 0 0 0 0 0 0 0 0 0 0 0 0 0 0 0 0 0 1
7 6 6 5 6 7 7 7 6 5 5 4 3 3 3 4 5 5 3 1 1 1 1 0 0 0 0 0 0 0 0 0 0 0 0 0 0 0 0 0 0 0 0
3 3 3 2 3 4 4 4 3 3 4 3 2 2 1 2 4 3 2 0 0 0 0 0 0 0 0 0 0 0 0 0 0 0 0 0 0 0 0 0 0 0 0
1 1 1 1 1 2 2 2 2 2 2 2 2 1 1 1 2 3 2 1 0 0 0 0 0 0 0 0 0 0 0 0 0 0 0 0 0 0 0 0 0 0 0
0 0 0 0 0 1 1 1 1 1 1 1 1 1 0 0 1 3 3 2 0 0 0 0 0 0 0 0 0 0 0 0 0 0 0 0 0 0 0 0 0 0 0
0 0 0 0 0 0 0 0 0 0 0 0 0 0 0 0 0 1 2 1 0 0 0 0 0 0 0 0 0 0 0 0 0 0 0 0 0 0 0 0 0 0 0
0 0 0 0 0 0 0 0 0 0 0 0 0 0 0 0 0 0 0 0 0 0 0 0 0 0 0 0 0 0 0 0 0 0 0 0 0 0 0 0 0 0 0
0 0 0 0 0 0 0 0 0 0 0 0 0 0 0 0 0 0 0 0 0 0 0 0 0 0 0 0 0 0 0 0 0 0 0 0 0 0 0 0 0 0 0
0 0 0 0 0 0 0 0 0 0 0 0 0 0 0 0 0 0 0 0 0 0 0 0 0 0 0 0 0 0 0 0 0 0 0 0 0 0 0 0 0 0 0
0 0 0 0 0 0 0 0 0 0 0 0 0 0 0 0 0 0 0 0 0 0 0 0 0 1 0 0 0 0 0 0 0 0 0 0 0 0 0 0 0 0 0
0 0 0 0 0 0 0 0 0 0 0 0 0 0 0 0 0 0 0 0 0 0 0 0 0 0 0 0 0 0 0 0 0 0 0 0 0 0 0 0 0 0 0
0 0 0 0 0 0 0 0 0 0 0 0 0 0 0 0 0 0 0 0 0 0 0 0 0 0 0 0 0 0 0 0 0 0 0 0 0 0 0 0 0 0 0
Wind_Speed
8 9 9 10 10 10 10 11 11 11 10 9 10 9 9 9 9 9 9 8 8 8 8 8 8 8 8 8 9 8 8 8 8 8 7 7 6 6 6 5 2 5 8
10 10 10 10 11 11 11 11 10 10 10 9 9 9 9 8 8 8 8 8 8 8 8 8 8 8 8 7 7 7 7 7 7 6 4 4 5 5 5 4 4 5 5
10 10 11 10 11 11 11 11 10 10 10 9 9 9 8 8 8 7 7 7 7 7 7 7 7 7 7 7 6 6 6 5 5 3 2 2 5 5 4 4 3 3 3
10 10 10 11 11 11 11 11 10 10 10 9 9 9 8 8 7 7 7 7 7 7 7 7 6 6 6 6 5 5 5 4 3 2 1 2 3 5 2 2 2 2 2
9 9 11 10 11 11 11 11 11 10 10 9 9 8 8 7 7 7 7 7 6 6 6 6 6 6 5 5 4 4 4 3 0 4 1 1 1 4 1 1 1 1 1
9 9 11 10 11 11 11 10 10 10 10 9 8 8 8 7 7 7 6 6 6 6 6 5 5 5 5 4 3 3 3 1 4 1 0 1 0 2 1 1 1 1 1
9 8 11 10 11 11 10 10 10 10 9 9 8 8 8 7 7 7 6 6 5 5 5 5 4 4 4 3 3 2 2 1 3 1 1 1 2 2 2 2 2 2 2
9 9 9 11 11 11 10 10 9 9 9 9 8 8 8 7 7 6 5 5 5 5 4 4 3 3 3 2 2 2 1 3 3 2 2 1 3 3 3 3 3 3 4
8 8 8 8 9 10 10 9 9 9 9 9 8 8 7 7 7 6 5 5 5 4 4 4 3 2 2 2 2 1 1 3 5 2 2 2 2 4 4 5 5 5 5
8 8 7 7 7 7 8 9 9 9 8 8 8 7 7 6 6 6 5 5 5 5 5 4 4 3 2 2 2 2 2 5 4 3 2 1 2 5 6 6 6 6 6
7 7 7 7 6 6 7 7 8 8 7 6 7 6 4 3 4 4 6 6 6 5 5 5 4 3 2 1 2 2 4 3 3 2 2 4 4 6 6 6 6 7 7
7 6 5 6 6 6 5 5 4 4 4 4 4 4 3 3 3 3 6 5 5 4 4 4 3 1 2 0 1 2 2 3 2 2 2 4 5 6 6 6 6 7 7
7 6 5 5 5 5 4 3 3 2 3 3 4 4 2 3 2 2 1 2 2 1 1 1 0 1 1 1 2 2 2 2 2 2 2 4 5 6 6 6 6 7 7
7 6 5 5 5 5 4 3 3 2 2 2 3 3 2 2 2 2 1 2 1 1 1 1 1 1 2 1 2 2 2 2 2 2 2 5 5 5 6 6 6 6 6
6 6 5 5 5 4 4 3 3 3 3 3 3 3 3 2 2 2 1 1 2 2 1 2 2 2 2 2 2 2 2 2 2 2 1 4 5 6 6 6 6 6 6
6 5 5 5 5 5 4 4 3 3 3 3 3 3 3 3 2 2 2 2 2 2 2 2 2 2 2 2 2 2 2 2 2 2 2 2 4 6 7 7 7 6 6
5 5 5 5 4 4 5 4 3 3 3 3 3 3 3 3 3 2 2 2 2 2 2 2 2 1 1 1 2 2 2 2 2 2 2 2 2 5 7 8 8 7 7
5 5 5 4 5 4 4 4 3 3 4 3 3 3 4 4 3 2 2 3 3 2 2 2 2 1 1 2 2 2 1 1 2 2 2 2 3 2 4 8 9 9 9
5 5 5 5 5 4 4 4 4 3 4 3 3 3 4 4 3 2 2 3 3 2 2 2 2 2 2 2 2 1 1 1 1 1 2 3 4 4 3 5 6 8 10
4 5 5 5 5 4 2 3 3 3 3 3 3 4 4 3 3 3 2 3 3 2 2 2 2 2 2 2 2 1 1 1 1 1 1 2 3 4 4 4 3 4 7
4 4 4 4 4 3 1 1 1 2 2 2 3 4 3 3 3 3 2 2 3 2 3 3 3 2 2 2 2 1 1 1 1 1 1 1 3 4 4 4 4 4 3
4 4 4 3 3 2 1 1 1 1 1 1 2 2 3 3 3 3 3 2 2 2 2 3 3 2 1 2 2 2 2 3 2 0 0 1 2 3 3 4 4 4 4
4 3 3 2 3 3 2 1 1 1 1 1 1 1 2 3 3 3 3 3 2 2 2 2 3 2 2 1 2 3 3 2 1 2 1 1 2 2 3 3 4 4 5
4 3 3 3 3 3 3 3 2 2 1 1 0 0 1 1 2 2 2 2 2 2 2 2 2 2 2 2 1 2 3 3 3 2 2 1 2 2 3 2 3 3 5
4 4 4 3 3 3 3 3 3 2 1 1 1 1 0 0 1 1 1 1 1 1 2 2 2 2 1 2 2 2 2 3 4 4 3 2 2 2 2 2 2 3 4
5 4 4 4 3 3 3 3 3 3 2 2 2 1 1 1 1 1 1 1 1 1 1 2 2 2 1 2 1 2 2 2 2 3 4 4 4 2 2 2 2 2 3
Wind_Direction
155 153 146 146 140 136 133 128 124 121 120 119 118 117 115 116 115 112 110 105 101 100 100 100 99 98 94 91 88 85 84 82 79 76 69 67 66 69 72 67 50 91 77
149 151 145 145 140 137 133 126 121 120 119 117 117 115 114 112 113 111 109 106 100 98 99 101 100 97 93 92 91 87 85 83 82 77 72 105 87 67 69 60 31 61 81
147 149 148 143 137 135 131 127 124 123 121 119 118 116 111 106 107 109 109 106 101 97 96 96 97 98 92 87 89 88 87 88 84 77 244 112 98 81 62 69 76 75 82
145 148 147 139 136 134 131 128 126 124 123 119 117 114 109 103 101 109 110 106 103 98 95 95 92 92 94 91 89 87 86 87 86 261 230 63 81 83 60 61 72 81 69
140 141 134 135 132 130 129 128 126 124 122 118 116 112 109 104 99 103 106 104 102 98 95 94 91 88 90 93 91 89 86 86 154 254 50 60 69 82 45 36 36 32 12
136 134 129 129 126 125 125 125 124 123 121 118 115 112 108 103 99 94 97 96 97 97 96 95 92 88 88 91 89 85 83 81 248 299 358 291 26 83 324 325 307 288 290
128 124 126 120 120 118 116 118 119 118 117 114 111 108 104 98 93 86 88 89 92 98 99 98 95 92 90 84 79 75 70 309 288 319 305 308 29 9 306 299 290 276 270
123 117 115 108 109 110 110 109 111 111 110 109 105 102 98 93 89 83 82 87 87 89 93 97 98 95 91 83 73 63 45 293 272 289 294 301 35 321 297 292 285 276 267
115 115 116 117 117 110 104 102 102 102 103 103 98 93 88 85 83 80 76 82 82 78 75 72 73 78 77 66 48 34 356 293 276 284 290 303 27 302 291 287 279 269 265
114 112 114 117 118 120 114 98 94 92 93 97 92 86 86 88 84 76 73 70 70 68 67 61 57 52 44 42 27 9 316 264 268 282 281 11 352 296 290 287 283 272 265
113 110 113 113 110 110 112 105 102 95 87 98 101 94 105 103 95 90 65 62 65 65 62 55 51 47 19 110 69 349 268 273 297 302 310 17 314 296 293 294 293 284 273
123 113 113 112 111 109 108 110 104 104 101 98 103 107 100 86 71 68 83 66 65 64 72 56 44 58 281 266 129 232 273 298 300 304 8 8 316 306 301 300 296 293 287
123 109 102 107 107 105 102 100 94 94 94 88 83 78 81 84 80 65 81 93 82 59 55 61 311 1 336 345 317 303 319 312 309 317 17 13 329 319 315 311 306 299 297
120 109 101 101 105 101 98 96 95 90 85 79 76 65 65 67 61 51 51 44 30 25 11 357 331 346 326 320 310 309 313 306 309 319 24 24 350 340 330 320 317 315 311
115 108 100 98 102 104 99 94 89 80 77 74 67 60 55 58 50 38 37 38 25 12 1 346 333 335 317 319 318 316 315 310 312 316 23 50 17 4 354 349 340 333 329
115 110 100 91 90 99 97 95 84 77 71 65 64 55 50 49 44 36 35 26 20 6 356 343 351 332 327 328 329 328 325 322 323 330 341 65 54 24 13 7 1 355 349
115 110 103 93 86 89 93 91 83 77 74 64 55 49 47 44 38 32 26 24 16 360 352 349 359 337 339 334 332 339 336 333 334 348 360 357 43 49 30 18 12 8 2
111 109 100 98 91 82 82 84 82 74 71 66 60 49 42 38 31 32 28 27 10 358 356 354 346 338 339 334 331 337 335 338 345 14 32 32 22 21 43 34 23 18 12
116 115 107 99 91 82 78 81 81 75 70 65 58 53 42 37 29 35 29 23 13 7 7 356 345 337 337 337 328 331 333 342 16 32 49 45 37 26 23 46 36 27 18
112 112 111 107 99 96 94 95 91 81 71 65 56 48 40 35 29 33 37 25 17 17 12 358 347 344 336 331 309 313 338 2 37 40 43 51 41 29 18 11 9 23 23
124 122 121 117 112 111 107 94 91 88 80 72 60 48 38 31 28 32 30 32 22 20 9 358 347 339 348 334 278 254 210 184 140 64 44 31 35 23 12 7 3 355 1
142 138 130 128 128 124 105 80 43 77 85 66 61 53 33 30 26 28 17 21 21 8 10 4 354 334 346 355 315 283 255 199 167 115 25 20 13 8 6 6 4 3 356
157 156 149 156 159 150 150 149 147 148 163 161 108 66 34 26 26 25 22 10 10 358 359 1 353 340 331 347 344 310 294 288 311 200 210 329 354 350 352 357 0 3 358
166 160 165 170 170 165 173 188 197 201 193 142 101 82 53 34 23 17 14 6 360 351 352 351 346 327 311 304 299 311 305 312 286 275 209 218 312 323 335 340 348 358 355
168 166 169 168 169 176 189 193 207 214 197 162 188 218 274 30 8 360 348 336 338 343 339 327 319 318 301 295 295 289 273 273 269 275 278 281 288 293 320 318 330 342 347
169 170 173 176 178 183 192 201 214 219 218 217 223 233 242 242 249 258 277 288 295 307 315 311 302 293 284 278 273 275 283 278 280 277 281 292 293 288 287 291 308 330 341